Overview Statistics Trail Chart Weather Telemetry Raw packets
 

This is the latest recevied weather packets stored in our database for station/object EA1GEC-10. If no packets are shown the sender has not sent any weather packets the latest 10 day(s).

<< 9 10 11 12 13 14 15 >>
Time Temp. Humidity Pressure Rain* Wind** Luminosity Snow
1777633096 17.22° C 61% 1026.1 hPa - - - -
1777632196 18.89° C 57% 1026 hPa - - - -
1777631298 20° C 58% 1026.1 hPa - - - -
1777630396 18.89° C 60% 1026.2 hPa - - - -
1777629496 18.33° C 61% 1026.3 hPa - - - -
1777628596 17.78° C 62% 1026.3 hPa - - - -
1777627696 17.78° C 62% 1026.3 hPa - - - -
1777625895 17.22° C 66% 1026.4 hPa - - - -
1777624995 16.67° C 67% 1026.4 hPa - - - -
1777624095 16.11° C 68% 1026.5 hPa - - - -
1777623195 16.67° C 69% 1026.4 hPa - - - -
1777622295 16.11° C 71% 1026.3 hPa - - - -
1777621395 15° C 73% 1026.3 hPa - - - -
1777620495 15° C 74% 1026.3 hPa - - - -
1777619595 14.44° C 76% 1026.2 hPa - - - -
1777618695 14.44° C 76% 1026.2 hPa - - - -
1777617795 14.44° C 78% 1026.1 hPa - - - -
1777616898 15° C 81% 1026.1 hPa - - - -
1777615998 15° C 81% 1025.9 hPa - - - -
1777615094 15° C 81% 1026 hPa - - - -
1777614194 15° C 82% 1025.9 hPa - - - -
1777613294 15° C 82% 1025.8 hPa - - - -
1777612394 14.44° C 83% 1025.8 hPa - - - -
1777611534 14.44° C 82% 1025.7 hPa - - - -
1777611494 14.44° C 82% 1025.7 hPa - - - -

* Rain since midnight (hover to see other rain measurements)
** Current wind speed in m/s (hover to see current wind gust speed)